Location: Wingville
(42.9917°N, 90.4915°W)
Time: 05:11:57
(UTC+00:00)

Tiangong - Visible Passes

Search period start: 25 January 2022 00:00
Search period end: 04 February 2022 00:00
Orbit: 383 x 386 km, 41.5° (Epoch: 23 January)

Date Brightness Start Highest point End Pass type
(mag) Time Alt. Az. Time Alt. Az. Time Alt. Az.
26 Jan 3.7 00:54:23 10° S 00:54:53 12° S 00:54:53 12° S visible
27 Jan 4.0 01:29:56 10° SW 01:30:26 13° SW 01:30:26 13° SW visible
28 Jan 2.7 00:30:41 10° SSW 00:33:11 21° SSE 00:33:42 20° SE visible
29 Jan 2.4 01:06:55 10° WSW 01:09:06 34° SSW 01:09:06 34° SSW visible
30 Jan 2.3 00:07:22 10° SW 00:10:14 32° SSE 00:12:13 16° ESE visible
30 Jan 4.2 01:43:42 10° W 01:44:26 16° WSW 01:44:26 16° WSW visible
31 Jan 1.3 00:43:56 10° WSW 00:47:03 57° S 00:47:30 50° SE visible
31 Jan 1.8 23:44:12 10° WSW 23:47:14 44° SSE 23:50:17 10° E visible
01 Feb 2.8 01:20:46 10° W 01:22:44 34° WSW 01:22:44 34° WSW visible
02 Feb 1.2 00:20:55 10° W 00:24:03 66° S 00:25:45 24° E visible
02 Feb 4.6 01:57:41 10° W 01:57:57 12° W 01:57:57 12° W visible
03 Feb 1.3 00:57:45 10° W 01:00:53 59° S 01:00:58 59° S visible
